Simultaneous Nadir Overpasses (SNOs) Predictions

Prediction of SNOs between LANDSAT-8 and METOP-A Satellite Orbit:

Table of predicted SNOs for the next 14.0 days since TLE Epoch: 11/28/2014
Index Date (LANDSAT-8) Time (LANDSAT-8) Lat,Lon (LANDSAT-8) SZA (LANDSAT-8 ) Date (METOP-A) Time (METOP-A) Lat,Lon (METOP-A) SZA (METOP-A ) Distance(km) Time Diff (sec)
1 11/30/2014 00:19:01 -81.10, 34.64 75.15 11/30/2014 00:18:27 -81.10, 34.54 75.17 1.68 34
2 11/30/2014 01:08:26 81.13,-157.29 104.93 11/30/2014 01:09:05 81.13,-157.21 104.96 1.50 39
3 12/02/2014 19:53:15 -81.11, 101.27 74.71 12/02/2014 19:52:49 -81.11, 101.31 74.72 0.75 26
4 12/02/2014 20:42:40 81.14, -90.67 105.36 12/02/2014 20:43:28 81.13, -90.84 105.36 2.99 48
5 12/05/2014 15:27:28 -81.10, 167.62 74.38 12/05/2014 15:27:11 -81.11, 167.63 74.38 0.42 17
6
